Regional Weather Roundup
Issued by NWS

Home | Current Version | Previous Version | Text Only | Print | Product List | Glossary Off
Versions: 1 2 3 4 5 6 7 8 9 10 11 12 13 14 15 16 17 18 19 20 21 22 23 24 25 26 27 28 29 30 31 32 33 34 35 36 37 38 39 40 41 42 43 44 45 46 47 48 49 50

000
ASUS43 KLMK 251602
RWRKY
KENTUCKY REGIONAL WEATHER ROUNDUP
NATIONAL WEATHER SERVICE LOUISVILLE KY
1200 PM EDT SAT OCT 25 2014

NOTE "FAIR" INDICATES FEW OR NO CLOUDS BELOW 12,000 FEET
WITH NO SIGNIFICANT WEATHER AND/OR OBSTRUCTIONS TO VISIBILITY.

KYZ001>023-026-027-061>063-070>075-251700-
WESTERN AND SOUTH CENTRAL KENTUCKY

CITY           SKY/WX    TMP DP  RH WIND       PRES   REMARKS
PADUCAH        MOSUNNY   71  60  68 NW6       30.05S
HENDERSON      MOSUNNY  N/A N/A N/A W10       30.03F
OWENSBORO      MOSUNNY   69  60  73 W10       30.03F
HOPKINSVILLE   SUNNY     69  60  72 W9        30.05F
BOWLING GREEN  CLOUDY    67  54  63 SW10      30.05F
GLASGOW        NOT AVBL
$$

KYZ024-025-028>034-038-045-046-053-251700-
NORTH CENTRAL KENTUCKY

CITY           SKY/WX    TMP DP  RH WIND       PRES   REMARKS
LOUISVILLE/SDF CLOUDY    64  54  69 SW13      30.02F
LOUISVILLE/LOU CLOUDY    63  54  72 W6        30.03F
FORT KNOX      PTSUNNY   66  55  68 W7        30.02F
$$

KYZ035>037-039>044-047>052-055>060-089>105-251700-
NORTHEAST KENTUCKY

CITY           SKY/WX    TMP DP  RH WIND       PRES   REMARKS
LEXINGTON      CLOUDY    62  52  69 SW9       30.04S
COVINGTON      CLOUDY    63  53  70 W8        29.99F
FRANKFORT      CLOUDY    63  52  67 SW12      30.01F
$$

KYZ054-064>069-076>088-106>120-251700-
SOUTHEAST KENTUCKY

CITY           SKY/WX    TMP DP  RH WIND       PRES   REMARKS
JACKSON        CLOUDY    57  46  66 VRB3      30.07S
LONDON         PTSUNNY   62  47  57 VRB3      30.08F
SOMERSET       CLOUDY    57  48  72 CALM      30.09F
MIDDLESBORO    SUNNY     52  45  78 CALM      30.10F
MONTICELLO     PTSUNNY   65  53  65 S8        30.09F
$$




USA.gov is the U.S. government's official web portal to all federal, state and local government web resources and services.